Overview Statistics Trail Chart Weather Telemetry Raw packets
 

This is the latest recevied weather packets stored in our database for station/object PA3BWK. If no packets are shown the sender has not sent any weather packets the latest 10 day(s).

<< 550 551 552 553 554 555 556 >>
Time Temp. Humidity Pressure Rain* Wind** Luminosity Snow
1787747824 23.89° C 59% 1016.2 hPa 0 mm - 148 W/m² -
1787747765 23.89° C 58% 1016.1 hPa 0 mm - 141 W/m² -
1787747704 23.89° C 59% 1016.2 hPa 0 mm - 132 W/m² -
1787747644 23.89° C 59% 1016.2 hPa 0 mm - 123 W/m² -
1787747584 23.89° C 59% 1016.1 hPa 0 mm - 123 W/m² -
1787747524 23.89° C 59% 1016.2 hPa 0 mm - 111 W/m² -
1787747465 23.89° C 59% 1016.1 hPa 0 mm - 93 W/m² -
1787747403 23.89° C 58% 1016.2 hPa 0 mm - 93 W/m² -
1787747342 23.89° C 58% 1016.2 hPa 0 mm - 88 W/m² -
1787747280 23.89° C 57% 1016.2 hPa 0 mm - 78 W/m² -
1787747220 23.89° C 56% 1016.2 hPa 0 mm - 67 W/m² -
1787747157 23.89° C 57% 1016.3 hPa 0 mm - 85 W/m² -
1787747096 23.89° C 58% 1016.3 hPa 0 mm - 97 W/m² -
1787747034 23.89° C 59% 1016.3 hPa 0 mm - 97 W/m² -
1787746972 23.89° C 58% 1016.3 hPa 0 mm - 97 W/m² -
1787746912 23.89° C 59% 1016.2 hPa 0 mm - 93 W/m² -
1787746849 23.89° C 59% 1016.4 hPa 0 mm - 81 W/m² -
1787746788 23.33° C 59% 1016.3 hPa 0 mm - 83 W/m² -
1787746726 23.33° C 59% 1016.3 hPa 0 mm - 92 W/m² -
1787746666 23.33° C 60% 1016.4 hPa 0 mm - 106 W/m² -
1787746604 23.33° C 61% 1016.3 hPa 0 mm - 125 W/m² -
1787746544 23.33° C 61% 1016.4 hPa 0 mm - 165 W/m² -
1787746494 23.33° C 60% 1016.4 hPa 0 mm - 179 W/m² -
1787746424 23.33° C 60% 1016.4 hPa 0 mm - 183 W/m² -
1787746364 23.33° C 60% 1016.5 hPa 0 mm - 183 W/m² -

* Rain latest hour (hover to see other rain measurements)
** Current wind speed in m/s (hover to see current wind gust speed)